This is the latest recevied weather packets stored in our database for station/object K3HM. If no packets are shown the sender has not sent any weather packets the latest 10 day(s).
| Time | Temp. | Humidity | Pressure | Rain* | Wind** | Luminosity | Snow |
|---|---|---|---|---|---|---|---|
| 1777075967 | 17.78° C | 61% | 1010.9 hPa | 0 mm | - | 1 W/m² | - |
| 1777075662 | 18.33° C | 58% | 1011.1 hPa | 0 mm | - | 1 W/m² | - |
| 1777075358 | 18.89° C | 56% | 1011 hPa | 0 mm | - | 3 W/m² | - |
| 1777075055 | 18.89° C | 56% | 1011.2 hPa | 0 mm | - | 4 W/m² | - |
| 1777074750 | 19.44° C | 54% | 1011 hPa | 0 mm | - | 7 W/m² | - |
| 1777074446 | 20° C | 53% | 1011.1 hPa | 0 mm | - | 10 W/m² | - |
| 1777074143 | 20° C | 52% | 1011.1 hPa | 0 mm | - | 14 W/m² | - |
| 1777073839 | 20.56° C | 52% | 1011 hPa | 0 mm | - | 21 W/m² | - |
| 1777073534 | 20.56° C | 50% | 1010.8 hPa | 0 mm | - | 26 W/m² | - |
| 1777073230 | 21.11° C | 49% | 1010.7 hPa | 0 mm | - | 30 W/m² | - |
| 1777072927 | 21.67° C | 47% | 1010.9 hPa | 0 mm | - | 35 W/m² | - |
| 1777072622 | 21.67° C | 48% | 1010.5 hPa | 0 mm | - | 40 W/m² | - |
| 1777072316 | 21.67° C | 46% | 1010.8 hPa | 0 mm | - | 47 W/m² | - |
| 1777072010 | 22.22° C | 47% | 1010.5 hPa | 0 mm | - | 55 W/m² | - |
| 1777071706 | 22.22° C | 47% | 1010.5 hPa | 0 mm | - | 61 W/m² | - |
| 1777071402 | 22.22° C | 47% | 1010.4 hPa | 0 mm | - | 66 W/m² | - |
| 1777071098 | 22.22° C | 48% | 1010.4 hPa | 0 mm | - | 77 W/m² | - |
| 1777070794 | 22.22° C | 46% | 1010.7 hPa | 0 mm | - | 90 W/m² | - |
| 1777070492 | 22.78° C | 44% | 1010.5 hPa | 0 mm | - | 101 W/m² | - |
| 1777070190 | 22.78° C | 44% | 1010.5 hPa | 0 mm | - | 113 W/m² | - |
| 1777069885 | 22.78° C | 44% | 1010.8 hPa | 0 mm | - | 130 W/m² | - |
| 1777069584 | 22.78° C | 42% | 1010.5 hPa | 0 mm | - | 135 W/m² | - |
| 1777069281 | 22.78° C | 44% | 1010.4 hPa | 0 mm | - | 113 W/m² | - |
| 1777068977 | 22.78° C | 40% | 1010.4 hPa | 0 mm | - | 124 W/m² | - |
| 1777068674 | 22.78° C | 43% | 1010.7 hPa | 0 mm | - | 142 W/m² | - |
* Rain latest hour (hover to see other rain measurements)
** Current wind speed in m/s (hover to see current wind gust speed)